www.pogodaiklimat.ru

Погода и климат >> Архив погоды >> Россия >> Краснодарский край >> Имеретинка


ПОГОДА в Имеретинке

  • Прогноз погоды в Имеретинке
  • Монитор погоды в Имеретинке

АРХИВ ПОГОДЫ в Имеретинке

Время (UTC), дата Ветер
(напр.,м/с)
 
Видим.   Явления Облачность Т
(С)
Тd
(С)
f
(%)
Тe
(С)
Тes
(С)
Комфортность P
(гПа)
Po
(гПа)
Тmin
(С)
Tmax
(С)
R
(мм)
R24
(мм)
S
(см)
03 10.07 С 1 н/о н/о +19.2 +18.9 98 +22 +22 комфорт 1008.2 1008.1 +18.4
06 10.07 ЮЗ 1 н/о н/о +27.2 +19.8 64 +33 +33 очень
душно
1007.9 1007.8 +18.0
09 10.07 ЮЗ 2 н/о н/о +29.2 +19.8 57 +35 +35 очень
душно
1007.0 1006.9
12 10.07 ЮЗ 2 н/о н/о +28.3 +22.1 69 +37 +37 очень
душно
1006.2 1006.1
15 10.07 З 1 н/о н/о +26.1 +20.9 73 +33 +33 очень
душно
1005.5 1005.4 +29.7
18 10.07 СЗ 1 н/о н/о +24.0 +20.3 80 +30 +30 очень
душно
1005.5 1005.4
21 10.07 С 1 н/о н/о +21.3 +21.3 100 +27 +27 душно 1005.0 1004.9
00 11.07 С 1 н/о н/о +20.2 +20.2 100 +25 +25 комфорт 1004.0 1003.9
03 11.07 штиль 0 н/о н/о +20.6 +20.6 100 +25 +25 комфорт 1002.5 1002.4 +19.9
06 11.07 В 1 н/о н/о +25.1 +23.2 89 +34 +34 очень
душно
1002.9 1002.8 +19.9
09 11.07 ЮЗ 1 н/о н/о +26.2 +22.9 82 +35 +35 очень
душно
1003.3 1003.2
12 11.07 штиль 0 н/о н/о +26.4 +21.6 75 +34 +34 очень
душно
1002.6 1002.5
15 11.07 СЗ 1 н/о н/о +26.1 +18.8 64 +31 +31 очень
душно
1001.8 1001.7 +27.5
18 11.07 штиль 0 н/о н/о +23.7 +21.8 89 +30 +30 очень
душно
1001.5 1001.4
21 11.07 штиль 0 н/о н/о +21.8 +21.8 100 +28 +28 душно 1001.6 1001.5
00 12.07 С 1 н/о н/о +20.7 +20.7 100 +27 +27 душно 1000.6 1000.5
03 12.07 СВ 1 н/о н/о +19.2 +19.2 100 +22 +22 комфорт 1001.4 1001.3 +19.2 12
06 12.07 З 1 н/о н/о +23.6 +22.9 96 +31 +31 очень
душно
1003.7 1003.6 +19.1
21 12.07 С 1 н/о н/о +20.0 +20.0 100 +25 +25 комфорт 1008.2 1008.1
03 13.07 штиль 0 н/о н/о +19.2 +19.2 100 +21 +21 комфорт 1007.5 1007.4 +19.2
06 13.07 СЗ 1 н/о н/о +23.6 +16.9 66 +27 +27 жарко 1009.0 1008.9 +19.1
09 13.07 ЮЗ 2 н/о н/о +25.7 +17.4 60 +30 +30 душно 1009.9 1009.8
12 13.07 ЮЗ 3 н/о н/о +26.8 +17.9 58 +31 +31 душно 1010.4 1010.3
15 13.07 З 1 н/о н/о +24.6 +16.8 62 +28 +28 душно 1010.3 1010.2 +27.5
18 13.07 штиль 0 н/о н/о +20.4 +17.2 82 +23 +23 комфорт 1010.7 1010.6
21 13.07 штиль 0 н/о н/о +18.4 +18.4 100 +19 +19 1010.3 1010.2
00 14.07 С 1 н/о н/о +17.3 +17.3 100 +18 +18 1009.5 1009.4
03 14.07 С 1 н/о н/о +16.9 +16.9 100 +18 +18 1009.2 1009.1 +16.9
06 14.07 ЮЗ 1 н/о н/о +23.4 +15.5 61 +28 +28 душно 1009.5 1009.4 +16.6
09 14.07 З 2 н/о н/о +25.2 +15.5 55 +28 +28 жарко 1008.7 1008.6
12 14.07 З 1 н/о н/о +25.2 +14.4 51 +28 +28 жарко 1007.8 1007.7
15 14.07 СЗ 1 н/о н/о +23.7 +15.5 60 +27 +27 жарко 1006.6 1006.5 +27.0
18 14.07 штиль 0 н/о н/о +19.8 +16.1 79 +22 +22 комфорт 1005.5 1005.4
21 14.07 С 1 н/о н/о +17.7 +17.7 100 +19 +19 1004.2 1004.1
00 15.07 С 1 н/о н/о +19.0 +14.9 77 +21 +21 комфорт 1002.2 1002.1
06 15.07 С 1 н/о н/о +21.3 +14.0 63 +24 +24 комфорт 1001.3 1001.2 +16.7
09 15.07 З 1 н/о н/о +21.7 +21.7 100 +28 +28 душно 1000.6 1000.5
12 15.07 СВ 1 н/о н/о +19.9 +19.9 100 +24 +24 комфорт 1003.0 1002.9
15 15.07 В 2 н/о н/о +23.1 +20.6 86 +30 +30 очень
душно
1003.5 1003.4 +22.0 3
18 15.07 В 2 н/о н/о +21.8 +21.1 96 +28 +28 душно 1005.5 1005.4
21 15.07 В 1 н/о н/о +19.7 +19.7 100 +24 +24 комфорт 1005.7 1005.6
00 16.07 В 4
{10}
н/о н/о +19.8 +19.8 100 +23 +23 комфорт 1005.6 1005.5
03 16.07 ЮВ 3 н/о н/о +19.3 +19.3 100 +22 +22 комфорт 1006.2 1006.1 +19.3 28

 

Местоположение метеостанции Имеретинка (Краснодарский край, Россия): широта 43.40 долгота 39.95 высота над уровнем моря 2 м.

В архиве по умолчанию представлена погода в Имеретинке за последнюю неделю. Архивные данные за месяц целиком и за предыдущие месяцы, начиная с января 2011 года, Вы можете получить, выбрав интересующий диапазон дат из раскрывающегося списка и нажав кнопку "Ввод!".


*Определитесь, кто Вы:
робот инопланетянин человек

Внимание! Время в таблицах - всемирное. Для получения местного времени необходимо прибавить поправку, которая равна 3 ч.

Смотрите также архив погоды в соседних городах и на ближайших метеорологических станциях:

Погода в Сочи аэропорт (Адлере) (Краснодарский край, Россия) (5 км)
Погода в Сочи (Краснодарский край, Россия) (25 км)
Погода в Кепше (Краснодарский край, Россия) (26 км)
Погода в Красной Поляне (Краснодарский край, Россия) (37 км)
Погода в Горная Карусель 1500 (Краснодарский край, Россия) (39 км)
Погода в Горная Карусель 1000 (Краснодарский край, Россия) (39 км)
Погода на Кордоне Лаура (Краснодарский край, Россия) (44 км)
Погода в Солох Ауле (Краснодарский край, Россия) (51 км)
Погода в Кичмае (Краснодарский край, Россия) (60 км)
Погода в Гузерипле (Адыгея, Россия) (68 км)

Пояснения к столбцам:

Ветер - указаны скорость ветра в м/с - средняя за 10 мин, порывы в срок и между сроками (в фигурных скобках) и направление, откуда дует ветер: С - северный, СВ - северо-восточный, В - восточный, ЮВ - юго-восточный, Ю - южный, ЮЗ - юго-западный, З - западный, СЗ - северо-западный.
Видимость - горизонтальная дальность видимости в метрах или километрах. При видимости от 1 до 10 км при отсутствии осадков обычно наблюдается дымка, при ухудшении видимости до 1 км и менее - туман. В сухую погоду видимость может ухудшаться дымом, пылью или мглою.
Явления - указаны атмосферные явления, наблюдавшиеся в срок или в последний час перед сроком; фигурными скобками обозначены явления, наблюдавшиеся между сроками (за 1-3 часа до срока); квадратными скобками обозначены град или гололедные отложения с указанием их диаметра в мм.
Облачность - указаны через наклонную черту общая и нижняя облачность в баллах и высота нижней границы облаков в метрах; квадратными скобками обозначены формы облаков: Ci - перистые, Cs - перисто-слоистые, Cc - перисто-кучевые, Ac - высококучевые, As - высокослоистые, Sc - слоисто-кучевые, Ns - слоисто-дождевые, Cu - кучевые, Cb - кучево-дождевые. Подробнее классификацию облаков см. в Атласе облаков (PDF).
T - Температура воздуха - температура, измеренная на высоте 2 м над землей.
Td - Температура точки росы - температура, при понижении до которой содержащийся в воздухе водяной пар достигнет насыщения.
f - Относительная влажность воздуха - влажноcть воздуха, измеренная на высоте 2 м над землей.
Te - Эффективная температура - температура, которую ощущает одетый по сезону человек в тени. Характеристика душности погоды. При расчете учитывается влияние влажности воздуха и скорости ветра на теплоощущения человека.
Tes - Эффективная температура на солнце - температура, которую ощущает человек, с поправкой на солнечный нагрев. Характеристика знойности погоды. Зависит от высоты солнца над горизонтом, облачности и скорости ветра. Ночью, в пасмурную погоду, а также при ветре 12 м/с и более поправка равна нулю.
P - Атмосферное давление - приведенное к уровню моря атмосферное давление.
Po - Атмосферное давление - измеренное на уровне метеостанции атмосферное давление.
Tmin - Минимальная температура - минимум температуры воздуха на высоте 2 м над землей.
Tmax - Максимальная температура - максимум температуры воздуха на высоте 2 м над землей.
R - Количество осадков - Количество выпавших осадков за период времени, мм. При наведении курсора мыши на число - период времени, за который выпало указанное количество осадков.
R24 - Количество осадков - Количество выпавших осадков за 24 часа, мм.
S - Снежный покров - Высота снежного покрова, см. При наведении курсора мыши на число - состояние снежного покрова и степень покрытия местности в баллах.